Location: Bartlow
(52.0833°N, 0.3167°E)
Time: 17:06:31
(UTC+00:00)

Cosmos 1833 Rocket - Pass Details

Date: 26 September 2023
Orbit: 830 x 841 km, 71.0° (Epoch: 07 December)

Event Time Altitude Azimuth Distance (km) Brightness Sun altitude
Exits shadow 01:17:37 35° 46° (NE) 1,327 4.0 -35.8°
Drops below altitude 10° 01:20:50 10° 35° (NE) 2,451 5.9 -35.6°
Sets 01:23:18 0° 33° (NNE) 3,390 6.9 -35.4°
